| time (UTC) | temp F | wind direction | speed MPH | gust MPH | rain 1hr in | rain 24hr in | rain mn in | humidity % | barometer mb |
| 20260510080027 | 55 | 199 | 1.0 | 4.0 | 0.00 | 0.01 | 0.00 | 92 | 1010.9 |
| 20260510074511 | 55 | 184 | 0.0 | 6.0 | 0.00 | 0.01 | 0.00 | 92 | 1010.9 |
| 20260510073010 | 54 | 181 | 2.0 | 4.0 | 0.00 | 0.01 | 0.00 | 92 | 1010.9 |
| 20260510071520 | 54 | 158 | 1.0 | 4.0 | 0.00 | 0.01 | 0.00 | 92 | 1010.8 |
| 20260510070028 | 54 | 137 | 0.0 | 2.0 | 0.00 | 0.01 | 0.00 | 92 | 1010.9 |
| 20260510064526 | 54 | 134 | 0.0 | 2.0 | 0.00 | 0.01 | 0.00 | 92 | 1011.0 |
| 20260510063008 | 54 | 135 | 0.0 | 4.0 | 0.00 | 0.01 | 0.00 | 92 | 1011.2 |
| 20260510061513 | 54 | 128 | 1.0 | 4.0 | 0.00 | 0.01 | 0.00 | 92 | 1011.1 |
| 20260510060020 | 54 | 130 | 0.0 | 3.0 | 0.00 | 0.01 | 0.00 | 92 | 1011.1 |
| 20260510054524 | 54 | 132 | 1.0 | 4.0 | 0.00 | 0.01 | 0.00 | 91 | 1011.2 |
| 20260510053027 | 54 | 149 | 0.0 | 2.0 | 0.00 | 0.01 | 0.00 | 91 | 1011.4 |
| 20260510051510 | 54 | 144 | 1.0 | 4.0 | 0.00 | 0.01 | 0.00 | 91 | 1011.4 |
| 20260510050015 | 54 | 153 | 0.0 | 3.0 | 0.00 | 0.01 | 0.00 | 91 | 1011.6 |
| 20260510044528 | 54 | 143 | 0.0 | 3.0 | 0.00 | 0.01 | 0.00 | 91 | 1011.5 |
| 20260510043024 | 54 | 147 | 1.0 | 3.0 | 0.00 | 0.01 | 0.00 | 90 | 1011.5 |
| 20260510041524 | 55 | 147 | 0.0 | 3.0 | 0.00 | 0.01 | 0.00 | 90 | 1011.4 |
| 20260510034516 | 55 | 120 | 1.0 | 3.0 | 0.00 | 0.01 | 0.01 | 90 | 1011.3 |
| 20260510033021 | 55 | 107 | 1.0 | 4.0 | 0.00 | 0.01 | 0.01 | 90 | 1011.1 |
| 20260510031525 | 56 | 112 | 1.0 | 6.0 | 0.00 | 0.01 | 0.01 | 89 | 1011.2 |
| 20260510030027 | 56 | 125 | 3.0 | 6.0 | 0.00 | 0.01 | 0.01 | 90 | 1011.0 |
| 20260510024513 | 56 | 121 | 1.0 | 4.0 | 0.00 | 0.01 | 0.01 | 89 | 1011.2 |
| 20260510023016 | 56 | 94 | 2.0 | 6.0 | 0.00 | 0.01 | 0.01 | 89 | 1011.1 |
| 20260510021524 | 56 | 98 | 2.0 | 7.0 | 0.00 | 0.01 | 0.01 | 88 | 1011.3 |
| 20260510014509 | 57 | 105 | 2.0 | 4.0 | 0.00 | 0.01 | 0.01 | 87 | 1011.2 |
| 20260510013008 | 57 | 184 | 0.0 | 2.0 | 0.00 | 0.01 | 0.01 | 86 | 1011.2 |
| 20260510011518 | 58 | 184 | 0.0 | 2.0 | 0.00 | 0.01 | 0.01 | 85 | 1011.0 |
| 20260510010007 | 58 | 185 | 0.0 | 1.0 | 0.00 | 0.01 | 0.01 | 84 | 1010.8 |
| 20260510004504 | 59 | 185 | 0.0 | 3.0 | 0.00 | 0.01 | 0.01 | 84 | 1010.8 |
| 20260510003007 | 60 | 189 | 0.0 | 5.0 | 0.00 | 0.01 | 0.01 | 83 | 1010.8 |
| 20260510001514 | 61 | 198 | 1.0 | 3.0 | 0.00 | 0.01 | 0.01 | 81 | 1010.8 |
| 20260510000017 | 62 | 198 | 1.0 | 4.0 | 0.00 | 0.01 | 0.01 | 79 | 1010.6 |
| 20260509234504 | 63 | 196 | 1.0 | 5.0 | 0.00 | 0.01 | 0.01 | 77 | 1010.3 |
| 20260509233007 | 63 | 259 | 0.0 | 9.0 | 0.00 | 0.01 | 0.01 | 76 | 1010.3 |
| 20260509231512 | 64 | 286 | 2.0 | 11.0 | 0.00 | 0.01 | 0.01 | 75 | 1010.3 |
| 20260509230012 | 65 | 215 | 4.0 | 7.0 | 0.00 | 0.01 | 0.01 | 72 | 1009.9 |
| 20260509224515 | 64 | 211 | 3.0 | 6.0 | 0.00 | 0.01 | 0.01 | 75 | 1010.0 |
| 20260509223004 | 61 | 187 | 2.0 | 8.0 | 0.00 | 0.01 | 0.01 | 80 | 1010.1 |
| 20260509221508 | 61 | 207 | 3.0 | 8.0 | 0.00 | 0.01 | 0.01 | 79 | 1010.2 |
| 20260509220013 | 61 | 173 | 2.0 | 8.0 | 0.00 | 0.01 | 0.01 | 78 | 1010.1 |
| 20260509214526 | 62 | 167 | 4.0 | 9.0 | 0.00 | 0.01 | 0.01 | 77 | 1010.0 |
| 20260509213018 | 62 | 217 | 4.0 | 14.0 | 0.00 | 0.01 | 0.01 | 77 | 1010.0 |
| 20260509211504 | 62 | 181 | 7.0 | 16.0 | 0.00 | 0.01 | 0.01 | 77 | 1009.8 |
| 20260509210012 | 62 | 190 | 5.0 | 13.0 | 0.00 | 0.01 | 0.01 | 76 | 1009.9 |
| 20260509204523 | 62 | 206 | 7.0 | 18.0 | 0.00 | 0.01 | 0.01 | 75 | 1010.1 |
| 20260509203017 | 63 | 222 | 7.0 | 15.0 | 0.00 | 0.01 | 0.01 | 74 | 1010.1 |
| 20260509201504 | 64 | 224 | 6.0 | 14.0 | 0.00 | 0.01 | 0.01 | 75 | 1010.4 |
| 20260509200007 | 63 | 203 | 8.0 | 18.0 | 0.00 | 0.01 | 0.01 | 77 | 1010.6 |
| 20260509194517 | 62 | 213 | 7.0 | 17.0 | 0.01 | 0.01 | 0.01 | 81 | 1010.8 |
| 20260509193016 | 61 | 216 | 8.0 | 18.0 | 0.01 | 0.01 | 0.01 | 86 | 1010.9 |
| 20260509191507 | 59 | 176 | 11.0 | 21.0 | 0.01 | 0.01 | 0.01 | 89 | 1011.1 |
| 20260509190007 | 59 | 196 | 6.0 | 20.0 | 0.01 | 0.01 | 0.01 | 88 | 1011.2 |
| 20260509184514 | 59 | 206 | 7.0 | 15.0 | 0.00 | 0.00 | 0.00 | 87 | 1011.8 |
| 20260509183016 | 60 | 153 | 11.0 | 17.0 | 0.00 | 0.00 | 0.00 | 83 | 1012.0 |
| 20260509181519 | 61 | 161 | 7.0 | 13.0 | 0.00 | 0.00 | 0.00 | 79 | 1012.0 |
| 20260509180024 | 62 | 191 | 5.0 | 15.0 | 0.00 | 0.00 | 0.00 | 78 | 1011.9 |
| 20260509174506 | 62 | 125 | 4.0 | 17.0 | 0.00 | 0.00 | 0.00 | 78 | 1012.0 |
| 20260509173014 | 62 | 185 | 4.0 | 13.0 | 0.00 | 0.00 | 0.00 | 74 | 1012.2 |
| 20260509171519 | 62 | 88 | 9.0 | 22.0 | 0.00 | 0.00 | 0.00 | 73 | 1012.3 |
| 20260509170023 | 63 | 198 | 7.0 | 16.0 | 0.00 | 0.00 | 0.00 | 72 | 1012.2 |
| 20260509164526 | 64 | 183 | 11.0 | 20.0 | 0.00 | 0.00 | 0.00 | 71 | 1012.2 |
| 20260509163007 | 64 | 171 | 11.0 | 21.0 | 0.00 | 0.00 | 0.00 | 72 | 1012.2 |
| 20260509161515 | 63 | 169 | 4.0 | 12.0 | 0.00 | 0.00 | 0.00 | 73 | 1012.8 |
| 20260509160020 | 62 | 153 | 5.0 | 12.0 | 0.00 | 0.00 | 0.00 | 75 | 1013.2 |
| 20260509154524 | 62 | 221 | 4.0 | 11.0 | 0.00 | 0.00 | 0.00 | 75 | 1013.5 |
| 20260509153039 | 62 | 210 | 4.0 | 13.0 | 0.00 | 0.00 | 0.00 | 76 | 1013.8 |
| 20260509151510 | 62 | 198 | 5.0 | 11.0 | 0.00 | 0.00 | 0.00 | 76 | 1013.9 |
| 20260509150026 | 61 | 188 | 6.0 | 12.0 | 0.00 | 0.00 | 0.00 | 77 | 1014.0 |
| 20260509144528 | 61 | 225 | 5.0 | 11.0 | 0.00 | 0.00 | 0.00 | 77 | 1013.9 |
| 20260509143023 | 60 | 219 | 6.0 | 14.0 | 0.00 | 0.00 | 0.00 | 78 | 1013.8 |
| 20260509141530 | 60 | 219 | 7.0 | 13.0 | 0.00 | 0.00 | 0.00 | 78 | 1013.7 |
| 20260509140012 | 60 | 207 | 5.0 | 12.0 | 0.00 | 0.00 | 0.00 | 80 | 1013.7 |
| 20260509134503 | 59 | 220 | 6.0 | 14.0 | 0.00 | 0.00 | 0.00 | 80 | 1013.7 |
| 20260509133010 | 59 | 189 | 9.0 | 16.0 | 0.00 | 0.00 | 0.00 | 80 | 1013.8 |
| 20260509131511 | 59 | 185 | 6.0 | 15.0 | 0.00 | 0.00 | 0.00 | 81 | 1013.8 |
| 20260509130012 | 58 | 238 | 6.0 | 17.0 | 0.00 | 0.00 | 0.00 | 82 | 1013.9 |
| 20260509124515 | 58 | 216 | 7.0 | 17.0 | 0.00 | 0.00 | 0.00 | 81 | 1013.8 |
| 20260509123004 | 58 | 215 | 7.0 | 13.0 | 0.00 | 0.00 | 0.00 | 82 | 1013.8 |
| 20260509121519 | 58 | 206 | 7.0 | 15.0 | 0.00 | 0.00 | 0.00 | 82 | 1013.9 |
| 20260509120007 | 58 | 168 | 8.0 | 15.0 | 0.00 | 0.00 | 0.00 | 83 | 1013.9 |
| 20260509114525 | 57 | 227 | 7.0 | 14.0 | 0.00 | 0.00 | 0.00 | 83 | 1013.8 |
| 20260509113023 | 57 | 188 | 7.0 | 15.0 | 0.00 | 0.00 | 0.00 | 84 | 1013.8 |
| 20260509111522 | 56 | 207 | 7.0 | 16.0 | 0.00 | 0.00 | 0.00 | 84 | 1014.0 |
| 20260509110010 | 56 | 189 | 8.0 | 14.0 | 0.00 | 0.00 | 0.00 | 84 | 1013.7 |
| 20260509104518 | 56 | 214 | 8.0 | 20.0 | 0.00 | 0.00 | 0.00 | 84 | 1013.8 |
| 20260509103017 | 56 | 213 | 10.0 | 18.0 | 0.00 | 0.00 | 0.00 | 84 | 1013.9 |
| 20260509101531 | 56 | 205 | 9.0 | 18.0 | 0.00 | 0.00 | 0.00 | 84 | 1013.7 |
| 20260509100028 | 56 | 203 | 8.0 | 19.0 | 0.00 | 0.00 | 0.00 | 84 | 1013.4 |
| 20260509094517 | 56 | 202 | 7.0 | 16.0 | 0.00 | 0.00 | 0.00 | 83 | 1013.6 |
| 20260509093027 | 55 | 214 | 8.0 | 18.0 | 0.00 | 0.00 | 0.00 | 83 | 1013.5 |
| 20260509091530 | 56 | 223 | 8.0 | 20.0 | 0.00 | 0.00 | 0.00 | 82 | 1013.6 |
| 20260509090025 | 56 | 179 | 7.0 | 18.0 | 0.00 | 0.00 | 0.00 | 81 | 1013.5 |
| 20260509084525 | 56 | 181 | 10.0 | 23.0 | 0.00 | 0.00 | 0.00 | 80 | 1013.5 |
| 20260509083012 | 56 | 230 | 9.0 | 17.0 | 0.00 | 0.00 | 0.00 | 79 | 1013.6 |